Temp
74 75 74 70 70 70 70 70 71 71 72 72 72 71 71 71 72 73 73 72 72 71 70 69 70 69 68 67 67 69 78 78
73 75 75 75 75 69 69 70 70 70 70 69 70 70 70 71 71 72 72 71 71 70 69 68 68 68 67 66 66 68 78 78
73 73 74 74 75 72 69 70 69 68 70 69 68 75 74 74 72 70 70 70 70 69 68 67 66 66 66 66 68 77 77 77
73 72 73 73 73 71 71 70 68 68 70 72 72 71 71 72 70 68 69 69 69 68 67 66 68 71 72 67 76 75 76 76
69 70 71 72 70 68 68 68 67 66 68 68 67 66 66 67 68 69 71 69 68 66 66 70 73 74 74 74 73 73 75 76
68 68 70 70 71 67 67 67 68 66 65 66 65 65 65 65 67 69 67 68 66 64 66 71 71 72 72 71 72 74 75 75
68 67 68 70 70 71 69 67 66 66 65 65 65 66 66 68 66 65 65 65 63 62 63 64 68 71 72 71 71 72 73 75
69 66 67 69 69 69 70 69 67 66 64 65 67 66 65 64 65 63 64 65 63 61 61 64 69 72 70 71 71 72 73 73
68 66 66 66 66 69 69 69 68 65 65 66 67 67 67 65 63 63 63 64 61 61 60 61 70 71 70 70 71 71 72 72
69 68 65 65 65 67 67 66 66 67 67 68 67 68 68 65 62 63 62 61 59 59 59 58 63 68 68 70 70 70 70 68
69 68 64 64 66 67 67 65 64 65 66 65 67 66 68 66 65 63 61 59 59 58 58 59 61 66 68 69 69 70 70 71
70 68 65 64 66 66 66 64 63 65 65 65 65 67 67 65 63 62 61 59 57 57 57 58 61 66 68 67 68 69 70 70
68 66 63 63 63 61 60 61 62 62 62 66 64 64 65 64 62 61 62 60 58 57 57 57 60 64 63 61 62 65 66 67
68 67 63 65 64 65 65 62 61 63 62 61 64 66 64 64 62 61 61 61 60 58 59 59 62 62 62 61 53 56 61 65
67 68 64 65 64 64 61 59 58 58 59 62 61 62 62 64 62 62 61 60 59 61 61 62 59 63 64 64 53 52 57 62
68 68 65 65 64 62 61 62 58 58 62 63 66 64 66 62 63 61 60 60 58 59 63 63 62 61 61 62 66 64 58 55
67 67 66 64 63 63 61 59 61 63 63 63 64 64 65 67 62 61 59 59 59 57 58 63 63 63 59 58 58 61 63 61
66 64 64 63 61 61 59 59 62 62 60 62 63 62 63 66 63 63 59 59 59 58 59 59 60 61 61 58 58 58 58 57
65 64 61 61 61 59 59 63 63 59 60 63 61 58 59 63 61 61 60 62 61 59 57 57 58 60 58 58 58 60 63 64
63 63 61 62 60 58 61 63 63 63 63 64 61 59 59 60 63 60 60 60 60 58 57 57 58 58 58 57 57 59 64 67
MSLP
1010.48 1010.77 1011.12 1011.59 1011.68 1011.99 1012.53 1012.79 1013.03 1013.18 1013.46 1013.76 1014.19 1014.65 1014.94 1015.16 1015.95 1016.22 1016.48 1016.98 1017.41 1017.70 1018.53 1018.67 1018.97 1019.16 1019.61 1019.94 1020.39 1020.58 1020.61 1020.91
1010.50 1010.69 1010.97 1011.28 1011.57 1011.79 1012.25 1012.70 1013.04 1013.24 1013.41 1013.83 1014.31 1014.75 1015.09 1015.56 1015.84 1016.15 1016.41 1016.98 1017.25 1017.94 1018.51 1018.75 1019.16 1019.46 1019.84 1020.14 1020.58 1020.90 1020.95 1021.22
1010.46 1010.82 1010.97 1011.09 1011.45 1011.67 1012.07 1012.53 1012.98 1013.38 1013.57 1013.88 1014.41 1014.72 1015.18 1015.69 1015.91 1016.14 1016.29 1016.73 1016.84 1017.02 1018.06 1018.48 1019.13 1019.65 1020.19 1020.44 1020.79 1020.87 1021.26 1021.46
1010.37 1010.71 1011.10 1011.29 1011.59 1011.73 1011.98 1012.53 1013.07 1013.47 1013.69 1013.95 1014.36 1014.83 1015.27 1015.64 1015.92 1016.33 1016.63 1016.75 1016.85 1016.91 1017.96 1018.62 1019.23 1019.90 1020.40 1020.73 1020.79 1021.13 1021.56 1021.64
1010.17 1010.55 1010.77 1011.26 1011.66 1011.94 1012.10 1012.41 1012.87 1013.51 1013.78 1014.11 1014.47 1014.92 1015.34 1015.61 1015.96 1016.33 1016.54 1016.76 1016.85 1017.41 1018.36 1018.77 1019.08 1019.40 1020.11 1020.56 1021.11 1021.52 1021.69 1021.85
1010.02 1010.40 1010.79 1011.10 1011.30 1011.95 1011.93 1012.22 1012.56 1013.17 1013.71 1014.03 1014.53 1014.88 1015.23 1015.63 1015.91 1016.02 1016.27 1016.33 1017.07 1017.69 1018.24 1018.60 1019.18 1019.55 1020.12 1020.75 1021.09 1021.40 1021.79 1022.00
1009.61 1010.09 1010.47 1010.83 1011.24 1011.55 1011.80 1012.09 1012.37 1012.90 1013.40 1013.90 1014.18 1014.59 1014.97 1015.20 1015.70 1015.98 1016.08 1016.51 1016.79 1017.59 1018.21 1018.71 1019.10 1019.56 1020.26 1020.66 1021.17 1021.56 1022.02 1022.20
1009.16 1009.65 1010.11 1010.47 1010.90 1011.35 1011.62 1011.81 1012.29 1012.81 1013.28 1013.73 1014.10 1014.46 1014.77 1015.12 1015.31 1015.64 1015.83 1016.19 1016.90 1017.41 1017.98 1018.39 1018.91 1019.50 1020.30 1020.86 1021.26 1021.64 1022.08 1022.42
1008.52 1009.19 1009.78 1010.18 1010.49 1011.08 1011.44 1011.69 1012.19 1012.81 1013.17 1013.51 1013.72 1014.05 1014.32 1014.62 1015.01 1015.28 1015.09 1015.69 1016.69 1017.57 1018.03 1018.61 1019.00 1019.59 1020.35 1021.02 1021.48 1021.79 1022.13 1022.54
1008.12 1008.73 1009.36 1009.88 1010.21 1010.67 1011.25 1011.62 1011.98 1012.45 1012.78 1013.04 1013.41 1013.57 1013.94 1014.26 1014.54 1014.54 1014.74 1015.44 1016.51 1017.22 1017.99 1018.91 1019.47 1019.77 1020.41 1020.99 1021.48 1022.07 1022.43 1022.72
1007.38 1008.06 1008.70 1009.42 1009.98 1010.29 1010.93 1011.28 1011.83 1012.10 1012.38 1012.74 1013.06 1013.47 1013.71 1014.07 1014.32 1014.57 1014.77 1015.60 1016.52 1017.08 1017.86 1018.68 1019.46 1019.98 1020.65 1021.08 1021.59 1021.95 1022.63 1022.66
1006.54 1007.47 1008.21 1009.01 1009.70 1010.14 1010.73 1011.14 1011.61 1011.78 1012.01 1012.25 1012.69 1013.04 1013.44 1013.99 1014.30 1014.80 1015.03 1015.57 1016.73 1017.43 1018.12 1019.00 1019.35 1019.77 1020.65 1021.38 1021.85 1022.31 1022.49 1022.74
1005.72 1006.66 1007.56 1008.47 1009.07 1009.66 1010.27 1010.65 1011.27 1011.71 1011.95 1012.05 1012.37 1012.68 1013.14 1013.69 1014.20 1014.87 1015.17 1015.65 1016.33 1017.49 1018.27 1018.96 1019.61 1020.09 1020.86 1021.84 1022.34 1022.65 1022.76 1022.87
1004.87 1005.65 1006.76 1007.62 1008.42 1009.09 1009.62 1010.30 1011.06 1011.40 1011.85 1012.05 1012.24 1012.39 1012.86 1013.11 1013.85 1014.40 1015.00 1015.77 1016.44 1017.31 1017.96 1018.69 1019.19 1019.61 1019.86 1021.13 1022.12 1022.91 1022.89 1022.93
1003.53 1004.34 1005.63 1006.82 1007.93 1008.83 1009.59 1010.35 1011.11 1011.43 1011.67 1011.92 1012.23 1012.37 1012.50 1012.79 1012.98 1013.96 1014.43 1015.35 1016.25 1016.67 1017.40 1017.76 1018.50 1019.20 1019.29 1019.38 1020.83 1021.36 1022.23 1022.71
1003.34 1004.04 1004.93 1006.09 1007.34 1008.12 1008.79 1009.08 1010.05 1010.61 1010.99 1011.55 1011.77 1012.10 1012.23 1012.38 1013.01 1013.31 1014.22 1014.74 1015.69 1016.26 1016.83 1017.26 1017.63 1018.32 1019.14 1019.46 1019.39 1019.73 1020.72 1021.99
1002.79 1003.55 1004.61 1005.64 1006.69 1007.36 1008.41 1009.02 1009.56 1010.16 1010.71 1011.04 1011.34 1011.73 1011.95 1012.05 1012.64 1013.00 1013.82 1014.38 1015.14 1015.73 1016.48 1016.92 1017.09 1017.42 1018.10 1018.91 1019.28 1019.72 1019.86 1020.34
1002.33 1003.00 1004.00 1005.33 1006.33 1007.03 1007.91 1008.59 1008.91 1009.63 1010.26 1010.52 1010.88 1011.36 1011.68 1011.79 1012.14 1012.82 1013.35 1013.93 1014.53 1015.29 1015.92 1016.45 1016.79 1017.34 1017.76 1018.23 1018.31 1018.89 1019.35 1019.78
1001.64 1002.08 1003.29 1004.78 1005.94 1006.80 1007.59 1008.13 1008.52 1009.32 1009.87 1010.09 1010.53 1011.13 1011.40 1011.44 1011.83 1012.28 1013.10 1013.65 1014.41 1014.92 1015.56 1015.95 1016.46 1016.73 1017.24 1017.76 1017.92 1018.17 1018.53 1019.04
1001.05 1001.50 1002.82 1004.23 1005.45 1006.46 1007.28 1007.76 1008.26 1008.90 1009.56 1009.92 1010.40 1011.03 1011.29 1011.48 1011.72 1012.14 1012.63 1013.37 1013.96 1014.56 1015.11 1015.35 1016.03 1016.49 1016.80 1017.28 1017.74 1018.59 1018.23 1018.12
Wind_Speed
8 11 12 10 11 11 10 10 12 11 9 10 13 15 15 16 18 17 16 16 15 18 15 17 18 18 18 17 15 12 13 10
9 10 11 11 11 10 11 11 10 11 11 13 14 14 15 16 15 16 17 17 16 14 16 17 17 17 17 16 16 12 12 12
9 9 9 10 10 8 10 12 13 11 9 15 13 11 14 14 12 11 15 19 20 23 21 18 18 17 16 16 15 8 10 8
10 10 9 8 6 8 8 9 7 6 8 12 9 10 10 10 9 7 10 15 23 23 18 18 18 11 10 13 6 10 8 8
11 10 9 9 6 4 3 6 6 6 10 8 7 5 4 3 3 5 8 13 9 11 11 10 14 11 11 9 9 9 6 6
13 10 10 10 6 6 6 6 7 6 6 9 6 4 5 4 5 8 5 6 10 8 7 12 14 13 13 11 11 8 7 6
14 11 11 10 9 6 6 7 6 7 8 8 7 7 8 8 7 5 5 6 8 8 8 9 11 13 11 12 11 10 10 7
14 13 12 12 10 10 7 6 7 6 6 7 10 8 7 7 7 6 7 7 8 9 9 9 10 11 11 11 11 10 11 10
16 15 12 14 13 10 7 7 7 6 7 11 12 11 10 9 7 9 7 9 12 10 8 5 10 10 11 10 9 11 10 11
15 14 14 14 12 10 8 8 7 8 8 8 10 11 10 7 2 8 10 9 9 10 10 8 8 10 10 9 8 8 10 11
17 17 16 14 13 10 9 10 6 8 7 6 11 9 10 7 6 7 8 9 9 9 8 9 8 9 9 9 8 8 10 9
17 15 16 14 10 9 7 6 5 5 6 7 10 9 11 8 5 7 8 7 8 8 10 6 7 10 10 8 7 7 8 8
19 19 16 13 9 8 5 5 5 4 3 9 9 8 11 10 6 8 9 9 12 11 10 12 7 8 10 6 5 6 7 7
20 21 19 15 10 9 6 6 3 4 4 4 5 11 10 12 11 10 10 8 12 13 12 11 8 11 8 9 4 3 5 7
22 23 20 16 14 9 6 6 3 3 4 5 5 5 5 10 12 12 12 11 10 14 14 16 10 11 12 7 5 4 7 6
19 20 20 17 16 13 15 10 7 5 7 6 7 8 9 5 11 11 12 10 11 12 12 12 13 14 9 4 5 7 7 6
18 20 20 17 16 16 11 10 8 7 7 9 9 8 10 10 8 13 12 9 12 14 12 14 11 12 9 5 3 3 5 4
19 20 17 17 16 15 14 15 12 8 7 7 6 6 6 11 11 12 10 11 13 13 14 12 10 11 9 7 6 5 5 4
19 21 19 17 17 14 16 14 12 11 10 8 6 4 4 10 9 12 10 12 12 11 12 12 12 13 14 8 4 5 7 6
19 20 19 18 16 14 14 13 8 8 9 6 6 5 4 5 8 7 11 12 13 12 11 12 12 11 13 7 5 4 6 8
Wind_Direction
174 178 178 177 180 178 178 178 175 183 168 154 150 157 159 157 177 177 153 153 162 152 155 151 145 137 132 126 124 135 137 135
180 182 180 188 195 180 173 181 178 179 174 156 156 159 162 174 170 164 164 173 154 161 169 157 145 136 135 129 122 129 141 141
184 187 186 185 196 181 177 166 160 151 156 157 155 171 174 174 171 177 170 185 177 164 173 153 143 135 132 125 140 145 146 147
190 184 187 188 194 184 165 153 148 146 161 165 165 166 172 179 182 204 213 203 180 160 160 146 149 148 139 131 152 148 159 156
189 183 181 188 186 173 166 171 149 154 171 162 160 151 162 177 193 212 219 227 185 146 145 153 160 158 155 157 153 158 155 155
188 180 185 192 175 191 177 171 165 161 168 156 165 175 182 193 209 213 204 199 151 148 158 159 164 156 158 155 156 160 161 157
190 178 190 188 189 192 191 174 167 159 158 172 176 186 198 208 197 187 176 151 152 149 148 151 154 154 160 158 160 162 162 163
186 182 186 187 188 193 194 179 162 157 160 182 195 199 204 208 202 194 186 159 158 150 154 162 157 158 164 166 165 165 168 167
188 184 184 190 184 194 192 191 174 174 181 197 200 201 208 207 207 206 181 158 146 143 135 127 159 162 166 166 168 168 169 166
187 182 185 189 185 184 190 191 184 195 197 198 207 208 210 193 186 185 151 139 142 148 143 138 165 162 161 167 166 172 173 165
192 185 184 189 189 179 188 184 186 201 188 185 198 181 196 188 166 125 142 132 137 138 138 148 154 163 164 163 172 167 184 171
189 185 182 185 179 176 181 180 179 204 191 182 185 181 180 167 138 147 135 121 129 136 138 149 158 161 161 160 165 179 182 183
188 180 181 176 171 168 169 179 179 190 189 196 183 169 175 170 143 156 149 146 148 148 145 154 155 157 140 141 152 176 183 186
187 184 178 182 176 179 176 162 175 176 188 186 186 196 185 179 162 165 166 153 151 155 160 164 155 167 165 153 150 155 198 200
189 183 173 176 171 159 126 107 96 153 197 201 189 208 204 189 174 170 169 164 167 169 172 175 165 178 167 158 157 179 156 198
190 179 172 170 169 169 175 177 178 193 199 199 199 195 209 206 178 174 166 170 169 178 178 183 162 177 178 201 198 145 179 171
184 173 173 170 172 175 178 184 184 182 192 197 201 195 204 204 184 173 170 177 176 172 179 190 187 179 181 162 152 164 155 147
178 170 168 173 172 170 178 187 177 171 186 191 197 196 200 211 184 178 177 172 179 176 182 189 185 188 185 182 170 167 162 141
178 168 168 173 177 172 185 189 174 174 182 191 177 185 205 200 187 179 171 181 181 179 179 184 191 190 184 181 161 185 168 184
178 173 168 173 174 172 186 181 175 178 180 193 170 190 190 184 198 172 171 181 180 180 184 189 195 188 177 164 165 220 202 190